Bolton Field, OH

12:35 PM EDT on April 26, 2018 (GMT -0400)
Bolton

Weather History for KTZR - January, 2012

Change the Weather History Date:

Saturday, January 21, 2012

  Actual Average Record
Temperature  
Mean Temperature 24 °F -  
Max Temperature 26 °F 32 °F 59 °F (2017)
Min Temperature 21 °F 19 °F -5 °F (2011)
Degree Days  
Heating Degree Days 42    
Moisture  
Dew Point 21 °F    
Average Humidity 87    
Maximum Humidity 94    
Minimum Humidity 74    
Precipitation  
Precipitation 0.00 in - - ()
Sea Level Pressure  
Sea Level Pressure 30.04 in    
Wind  
Wind Speed 10 mph (NNE)    
Max Wind Speed 15 mph    
Max Gust Speed 20 mph    
Visibility 8 miles    
Events Snow    
Averages and records for this station are not official NWS values.
T = Trace of Precipitation, MM = Missing Value Source: NWS Daily Summary

Daily Weather History Graph

Daily Weather History Graph

Search for Another Location

Airport or City:

Astronomy

Jan. 21, 2012 Rise Set
Actual Time 7:49 AM EST 5:38 PM EST
Civil Twilight 7:20 AM EST 6:07 PM EST
Nautical Twilight 6:47 AM EST 6:40 PM EST
Astronomical Twilight 6:15 AM EST 7:12 PM EST
Moon 6:19 AM EST (1/21) 4:13 PM EST (1/21)
Length of Visible Light 10h 47m
Length of Day
9h 48m
Waning Crescent, 3% of the Moon is Illuminated
Jan 21
Waning Crescent
Jan 23
New
Jan 30
First Quarter
Feb 7
Full
Feb 14
Last Quarter

Hourly Weather History & Observations

Time (EST) Temp. Windchill Dew Point Humidity Pressure Visibility Wind Dir Wind Speed Gust Speed Precip Events Conditions
12:15 AM 24.1 °F 14.4 °F 22.5 °F 94% 29.91 in 2.5 mi NNE 9.2 mph - N/A Snow Light Snow
12:35 AM 24.6 °F 13.8 °F 23.2 °F 94% 29.90 in 3.0 mi North 11.5 mph 17.3 mph N/A Snow Light Snow
12:55 AM 23.9 °F 13.5 °F 22.1 °F 93% 29.89 in 4.0 mi NNE 10.4 mph - N/A Snow Light Snow
1:15 AM 23.7 °F 12.1 °F 21.9 °F 93% 29.89 in 3.0 mi North 12.7 mph - N/A Snow Light Snow
1:35 AM 23.5 °F 12.4 °F 21.6 °F 92% 29.89 in 3.0 mi North 11.5 mph - N/A Snow Light Snow
1:55 AM 23.2 °F 11.4 °F 21.2 °F 92% 29.90 in 3.0 mi North 12.7 mph - N/A Snow Light Snow
2:15 AM 23.4 °F 10.6 °F 21.2 °F 91% 29.90 in 4.0 mi North 15.0 mph - N/A Snow Light Snow
2:35 AM 23.4 °F 11.6 °F 21.2 °F 91% 29.91 in 4.0 mi North 12.7 mph - N/A Snow Light Snow
2:55 AM 23.4 °F 12.2 °F 21.2 °F 91% 29.91 in 5.0 mi NNE 11.5 mph - N/A Snow Light Snow
3:15 AM 23.2 °F 12.6 °F 21.2 °F 92% 29.89 in 4.0 mi NNE 10.4 mph - N/A Snow Light Snow
3:35 AM 23.5 °F 16.4 °F 21.6 °F 92% 29.89 in 4.0 mi NNE 5.8 mph - N/A Snow Light Snow
3:55 AM 23.7 °F 15.6 °F 21.6 °F 91% 29.89 in 5.0 mi NNE 6.9 mph - N/A Snow Light Snow
4:15 AM 23.7 °F 15.6 °F 21.9 °F 93% 29.88 in 2.5 mi NNE 6.9 mph - N/A Snow Light Snow
4:35 AM 24.1 °F 18.2 °F 22.3 °F 93% 29.88 in 7.0 mi NNE 4.6 mph - N/A Snow Light Snow
4:55 AM 24.6 °F 15.8 °F 22.6 °F 92% 29.89 in 10.0 mi North 8.1 mph - N/A   Overcast
5:15 AM 23.9 °F 13.5 °F 22.1 °F 93% 29.90 in 10.0 mi North 10.4 mph - N/A   Overcast
5:35 AM 23.4 °F 12.2 °F 21.2 °F 91% 29.92 in 10.0 mi NNW 11.5 mph - N/A   Overcast
5:55 AM 22.5 °F 9.9 °F 20.1 °F 91% 29.94 in 10.0 mi North 13.8 mph 19.6 mph N/A   Overcast
6:15 AM 22.1 °F 10.6 °F 19.4 °F 89% 29.96 in 10.0 mi NNW 11.5 mph - N/A   Overcast
6:35 AM 21.7 °F 10.8 °F 19.4 °F 91% 29.96 in 10.0 mi NNW 10.4 mph 16.1 mph N/A   Overcast
6:55 AM 21.6 °F 8.2 °F 19.0 °F 90% 29.97 in 10.0 mi North 15.0 mph 18.4 mph N/A   Overcast
7:15 AM 21.2 °F 8.9 °F 18.3 °F 89% 29.98 in 10.0 mi North 12.7 mph - N/A   Overcast
7:20 AM 21.2 °F 9.5 °F 17.6 °F 86% 29.99 in 10.0 mi NNW 11.5 mph 17.3 mph N/A   Overcast
7:50 AM 21.2 °F 8.9 °F 17.6 °F 86% 30.01 in 10.0 mi North 12.7 mph - N/A   Mostly Cloudy
8:50 AM 21.2 °F 11.7 °F 17.6 °F 86% 30.04 in 10.0 mi North 8.1 mph - N/A   Scattered Clouds
9:50 AM 23.0 °F 11.7 °F 21.2 °F 93% 30.07 in 10.0 mi NNW 11.5 mph - N/A   Overcast
10:50 AM 24.8 °F 14.0 °F 21.2 °F 86% 30.10 in 7.0 mi North 11.5 mph - N/A   Overcast
11:50 AM 24.8 °F 14.6 °F 21.2 °F 86% 30.12 in 7.0 mi North 10.4 mph - N/A   Overcast
12:50 PM 26.6 °F 16.8 °F 21.2 °F 80% 30.12 in 7.0 mi North 10.4 mph - N/A   Overcast
1:53 PM 26.6 °F 17.5 °F 21.2 °F 80% 30.11 in 10.0 mi North 9.2 mph - N/A   Overcast
2:50 PM 26.6 °F 17.5 °F 21.2 °F 80% 30.13 in 10.0 mi North 9.2 mph - N/A   Overcast
3:58 PM 26.6 °F 19.1 °F 21.2 °F 80% 30.16 in 10.0 mi North 6.9 mph - N/A   Overcast
4:55 PM 26.6 °F 20.0 °F 21.2 °F 80% 30.18 in 10.0 mi North 5.8 mph - N/A   Overcast
5:58 PM 26.6 °F 19.1 °F 19.4 °F 74% 30.19 in 10.0 mi NE 6.9 mph - N/A   Overcast
6:50 PM 24.8 °F 19.1 °F 19.4 °F 80% 30.20 in 10.0 mi NE 4.6 mph - N/A   Overcast
8:35 PM 25.3 °F 17.6 °F 19.6 °F 79% 30.24 in 10.0 mi NE 6.9 mph - N/A   Overcast
8:55 PM 25.3 °F 17.6 °F 19.4 °F 78% 30.24 in 10.0 mi ENE 6.9 mph - N/A   Overcast
9:15 PM 25.5 °F 18.7 °F 19.9 °F 79% 30.24 in 10.0 mi ENE 5.8 mph - N/A   Overcast
9:35 PM 25.3 °F 18.5 °F 20.1 °F 81% 30.24 in 10.0 mi NE 5.8 mph - N/A   Overcast
10:15 PM 25.5 °F 17.8 °F 20.3 °F 81% 30.24 in 10.0 mi ENE 6.9 mph - N/A   Overcast
10:35 PM 25.5 °F 19.9 °F 20.3 °F 81% 30.23 in 10.0 mi East 4.6 mph - N/A   Overcast
10:55 PM 25.2 °F 17.3 °F 20.3 °F 82% 30.23 in 10.0 mi East 6.9 mph - N/A   Overcast
11:15 PM 24.8 °F 16.1 °F 19.6 °F 81% 30.22 in 10.0 mi East 8.1 mph - N/A   Overcast
11:35 PM 24.8 °F 17.9 °F 19.8 °F 81% 30.22 in 10.0 mi East 5.8 mph - N/A   Overcast
11:55 PM 23.9 °F 18.0 °F 19.6 °F 84% 30.22 in 10.0 mi East 4.6 mph - N/A   Overcast